Home > Weather > Arendal > Past weeks

Flag for Norway Past Weather in Arendal, Norway — Yesterday and Last 2 Weeks

Now
56 °F

Cool.


Feels Like: 53 °F
Forecast: 48 / 63 °F
Wind: 10 mph from East

Location: Torungen Fyr

Current Time: May 25, 2016 at 5:03:22 PM

Latest Report: May 25, 2016 at 4:00 PM


Visibility: N/A

Pressure: 30.12 "Hg

Humidity: 70%

Dew Point: 46 °F

Location of ArendalLocation

Past Weather in Arendal — Graph

°F

Arendal Temperature Yesterday

Maximum temperature yesterday: 57 °F (at 10:00 AM)
Minimum temperature yesterday: 54 °F (at 12:00 AM)
Average temperature yesterday: 55 °F

High & Low Weather Summary for the Past Weeks

 TemperatureHumidityPressure
High65 °F (May 10, 5:00 PM)98% (May 19, 10:00 PM)30.13 "Hg (May 19, 10:00 PM)
Low45 °F (May 15, 6:00 AM)35% (May 14, 11:00 AM)29.64 "Hg (May 13, 6:00 AM)
Average53 °F77%29.83 "Hg
* Reported May 10 4:00 PM — May 25 4:00 PM, Arendal, Weather by CustomWeather, © 2016

Note: Actual official high and low records may vary slightly from our data, if they occured in-between our weather recording intervals... More about our weather records

Advertising

Arendal Weather History for the Previous 24 Hours

Scroll right to see more
 ConditionsComfort  
Time TempWeatherWind HumidityBarometerVisibility
4:00 PM
Wed, May 25
56 °FCool.10 mph70%30.12 "HgN/A
3:00 PM55 °FCool.10 mph71%30.13 "HgN/A
2:00 PM55 °FCool.13 mph71%30.13 "HgN/A
1:00 PM54 °FCool.13 mph71%30.13 "HgN/A
12:00 PM55 °FCool.14 mph71%30.13 "HgN/A
11:00 AM54 °FCool.15 mph69%30.13 "HgN/A
10:00 AM54 °FCool.15 mph66%30.13 "HgN/A
9:00 AM54 °FCool.17 mph68%30.11 "HgN/A
8:00 AM53 °FCool.15 mph66%30.11 "HgN/A
7:00 AM53 °FCool.14 mph66%30.10 "HgN/A
6:00 AM54 °FCool.13 mph68%30.10 "HgN/A
5:00 AM54 °FCool.12 mph69%30.09 "HgN/A
4:00 AM54 °FCool.10 mph70%30.09 "HgN/A
3:00 AM55 °FCool.14 mph66%30.09 "HgN/A
2:00 AM55 °FCool.14 mph67%30.07 "HgN/A
1:00 AM55 °FCool.13 mph71%30.06 "HgN/A
12:00 AM56 °FCool.13 mph72%30.06 "HgN/A
11:00 PM
Tue, May 24
55 °FCool.13 mph80%30.05 "HgN/A
10:00 PM55 °FCool.14 mph81%30.01 "HgN/A
9:00 PM54 °FCool.12 mph86%30.01 "HgN/A
8:00 PM55 °FCool.10 mph84%30.01 "HgN/A
7:00 PM56 °FCool.12 mph80%30.00 "HgN/A
6:00 PM55 °FCool.10 mph85%30.00 "HgN/A
5:00 PM55 °FCool.10 mph83%30.01 "HgN/A
Weather by CustomWeather, © 2016

See weather overviewHow to use our weather pages